Regional Weather Roundup
Issued by NWS

Home | Current Version | Previous Version | Text Only | Print | Product List | Glossary On
Versions: 1 2 3 4 5 6 7 8 9 10 11 12 13 14 15 16 17 18 19 20 21 22 23 24 25 26 27 28 29 30 31 32 33 34 35 36 37 38 39 40 41 42 43 44 45 46 47 48 49 50
000
ASUS45 KREV 310210
RWRNV
NEVADA REGIONAL WEATHER ROUNDUP
NATIONAL WEATHER SERVICE RENO NV
700 PM PDT SAT JUL 30 2016

NOTE: "FAIR" INDICATES FEW OR NO CLOUDS BELOW 12,000 FEET WITH NO
SIGNIFICANT WEATHER AND/OR OBSTRUCTIONS TO VISIBILITY.

NVZ001-003-004-310300-
WESTERN NEVADA

CITY           SKY/WX    TMP DP  RH WIND       PRES   REMARKS
RENO           MOSUNNY   91  39  16 W17G32    29.95S
CARSON CITY    FAIR      88  37  16 NW13G23   30.01S
MINDEN         FAIR      86  39  19 W10       30.01R
PYRAMID LAKE     N/A     95 N/A N/A SW15        N/A
FALLON         MOSUNNY   98  39  13 W18G24    29.87R
LOVELOCK       SUNNY     97  33  10 W16       29.84S
HAWTHORNE      SUNNY     93  39  15 NW10      29.92F
$$

NVZ002-CAZ072-073-310300-
NORTHERN AND CENTRAL SIERRA

CITY           SKY/WX    TMP DP  RH WIND       PRES   REMARKS
S. LAKE TAHOE  SUNNY     78  40  25 VRB7      30.15S
TRUCKEE        SUNNY     79  41  25 SW9G17    30.13S
SQUAW VLY 8000 NOT AVBL
SUSANVILLE     SUNNY     91  32  12 SW15G24   29.95R
MAMMOTH LAKES    N/A     80  37  21 W13G25    30.21R
BRIDGEPORT       N/A     80  38  22 W10G21    30.15S
$$

NVZ030-031-036-310300-
NORTHERN NEVADA

CITY           SKY/WX    TMP DP  RH WIND       PRES   REMARKS
ELKO           MOCLDY    83  47  28 MISG      29.99R
WINNEMUCCA     MOSUNNY   95  30  10 W13       29.86S
WENDOVER       MOCLDY    86  46  25 N7        29.91S
$$

NVZ035-037-310300-
CENTRAL NEVADA

CITY           SKY/WX    TMP DP  RH WIND       PRES   REMARKS
ELY            MOCLDY    79  40  24 N9        30.09F
EUREKA           N/A     80  50  34 S10       30.03F
$$

NVZ013-014-310300-
SOUTH CENTRAL NEVADA

CITY           SKY/WX    TMP DP  RH WIND       PRES   REMARKS
TONOPAH        CLOUDY    87  40  19 W15       30.02S
$$

NVZ017-020-022-310300-
SOUTHERN NEVADA

CITY           SKY/WX    TMP DP  RH WIND       PRES   REMARKS
LAS VEGAS      PTCLDY   100  55  22 SE10      29.69S
N. LAS VEGAS   PTCLDY   101  55  21 SE9       29.72S
NELLIS AFB     PTCLDY   100  59  25 SE15      29.70S
HENDERSON      PTCLDY   101  58  24 SE15G23   29.77F
MERCURY        MOCLDY   100  45  15 SW14      29.81F
$$



USA.gov is the U.S. government's official web portal to all federal, state and local government web resources and services.